Weather in Gayutino

Russia / Yaroslavl Oblast     58°41′42″N   38°31′06″E
temp.,
°C
wind,
m/s
gust,
m/s
humid.,
%
clouds,
%
prec.,
mm/h
press.,
hPa
HPBL,
m
18 may, tue
tue1800:00+14e41095100 1.8 1013206
03:00+14ese6129295 1.8 1012225
06:00+15ese5119382 0.0 1011197
09:00+19ese5117318 0.0 1011366
12:00+22se6125562 0.0 1012737
15:00+23se6115116 0.0 10121787
18:00+21se6135987 0.0 1011604
21:00+19ese715745 0.0 1011391
19 may, wed
wed1900:00+17ese6157519 0.0 1011373
03:00+16ese613805 0.0 1011268
06:00+17ese7167941 0.0 1010361
09:00+20ese715650 0.0 1009455
12:00+21se712585 0.0 1010802
15:00+21se613585 0.0 10101498
18:00+21se613635 0.1 10081185
21:00+19se717723 0.7 1008628
20 may, thu
thu2000:00+17se61489100 4.0 1009396
03:00+16e5894100 6.8 1008132
06:00+14se51196100 3.9 1009411
09:00+17se5981100 4.4 1008491
12:00+20se6106581 0.0 1006708
15:00+16sse6129174 2.1 1007652
18:00+16se6128715 1.2 1006875
21:00+13se613893 1.8 1006390
21 may, fri
fri2100:00+11sse512903 0.0 1006445
03:00+10sse5109413 0.0 1007353
06:00+10s5996100 0.1 1008296
09:00+10s4692100 0.3 1009271
12:00+10wnw2599100 2.4 1010155
15:00+11nw2592100 3.1 1011259
18:00+12ssw238281 0.0 1012186
21:00+9ssw3490100 0.0 101351
22 may, sat
sat2200:00+8w22786 0.0 101423
03:00+8w34805 0.0 101665
06:00+8w26792 0.0 1017141
09:00+11w24640 0.0 1018534
12:00+13s34573 0.0 1019879
15:00+14s3550100 0.0 1019899
18:00+14sse23535 0.0 1018264
21:00+11se336838 0.0 101827